EDT,Max TemperatureF,Mean TemperatureF,Min TemperatureF,Max Dew PointF,MeanDew PointF,Min DewpointF,Max Humidity, Mean Humidity, Min Humidity, Max Sea Level PressureIn, Mean Sea Level PressureIn, Min Sea Level PressureIn, Max VisibilityMiles, Mean VisibilityMiles, Min VisibilityMiles, Max Wind SpeedMPH, Mean Wind SpeedMPH, Max Gust SpeedMPH,PrecipitationIn, CloudCover, Events, WindDirDegrees
2013-9-1,83,75,67,72,69,66,100,81,62,29.86,29.81,29.76,10,7,0,14,5,18,0.06,3,Fog,198
2013-9-2,80,70,60,72,68,58,100,82,64,29.89,29.83,29.77,10,4,0,18,6,23,0.41,5,Fog-Rain,267
2013-9-3,67,60,52,58,54,51,100,84,67,30.07,30.00,29.89,10,10,10,15,6,17,0.00,6,,286
2013-9-4,78,65,51,57,54,50,100,73,45,30.14,30.10,30.07,10,10,9,13,7,28,0.00,0,,226
2013-9-5,74,64,54,63,55,41,100,68,36,30.25,30.18,30.09,10,9,4,15,7,18,0.00,2,,337
2013-9-6,76,61,45,50,45,36,93,58,23,30.29,30.23,30.14,10,10,10,8,3,10,0.00,0,,100
2013-9-7,82,67,52,66,56,46,84,67,49,30.12,30.04,29.95,10,10,10,13,6,17,T,3,,204
2013-9-8,77,67,57,68,63,53,100,82,64,30.07,30.02,29.93,10,7,1,17,7,21,0.01,5,Rain,2
2013-9-9,86,72,57,68,62,53,86,71,55,30.07,30.03,29.97,10,10,10,16,8,22,0.00,2,,172
2013-9-10,95,85,74,72,70,66,87,64,41,30.11,30.06,30.01,10,10,8,17,11,22,0.00,0,,206
2013-9-11,89,80,70,72,69,66,84,70,55,30.13,30.06,29.99,10,10,8,15,9,18,0.00,1,,209
2013-9-12,76,67,58,70,64,51,100,75,49,29.98,29.93,29.85,10,7,2,24,7,31,0.76,6,Rain,273
2013-9-13,61,53,44,59,51,43,100,82,64,30.12,30.00,29.91,10,10,6,23,10,30,T,6,,321
2013-9-14,67,55,42,48,44,42,100,71,42,30.20,30.15,30.11,10,10,10,12,3,16,0.00,2,,352
2013-9-15,70,58,45,56,48,43,93,69,45,30.17,30.13,30.07,10,10,10,13,6,15,0.03,2,Rain,192
2013-9-16,69,59,48,57,54,47,100,76,51,30.35,30.21,30.12,10,7,2,17,8,22,T,6,,345
2013-9-17,69,56,43,49,46,42,100,71,42,30.40,30.34,30.25,10,7,0,10,4,15,0.00,0,Fog,105
2013-9-18,76,63,50,61,55,48,100,77,54,30.23,30.15,30.08,10,10,5,13,8,18,0.00,1,,157
2013-9-19,71,67,63,66,64,62,100,92,84,30.11,30.06,30.00,8,5,3,15,9,18,0.04,7,,169
2013-9-20,84,75,66,70,68,66,100,79,58,30.02,29.90,29.79,10,6,2,21,10,26,0.43,5,Rain,196
2013-9-21,69,61,53,67,61,48,100,79,58,29.86,29.75,29.69,10,7,2,18,6,24,0.97,7,Rain,280
2013-9-22,61,53,45,49,45,41,93,72,51,30.07,29.97,29.87,10,10,10,14,6,18,0.00,5,,325
2013-9-23,58,50,42,48,45,42,100,81,62,30.18,30.13,30.06,10,10,10,8,2,10,0.00,7,,49
2013-9-24,67,54,41,49,45,40,100,74,48,30.16,30.09,29.99,10,9,6,12,2,15,0.00,0,,73
2013-9-25,72,58,44,55,50,45,100,74,47,30.00,29.96,29.91,10,8,0,12,4,15,0.00,0,Fog,44
2013-9-26,76,61,46,52,48,43,100,66,31,30.13,30.05,29.97,10,9,1,12,4,17,0.00,0,Fog,16
2013-9-27,74,60,46,53,49,45,93,67,41,30.23,30.18,30.13,10,10,10,13,5,20,0.00,0,,58
2013-9-28,76,62,48,56,52,48,100,72,43,30.23,30.17,30.10,10,10,5,12,6,15,0.00,0,,146
2013-9-29,73,65,56,60,57,53,100,79,57,30.09,30.04,30.00,10,10,9,14,8,17,0.02,4,Rain,182
2013-9-30,70,64,58,62,60,58,100,87,73,30.05,30.01,29.96,10,7,1,13,7,17,0.02,7,,193